Home   Weather   Grand Junction   Past weeks

Flag for USA Past Weather in Grand Junction, Colorado, USA — Yesterday and Last 2 Weeks

Now
28 °F

Overcast.


Feels Like: 24 °F
Forecast: 26 / 43 °F
Wind: 3 mph from West

Location: Walker Field

Current Time: Dec 8, 2016 at 6:58:54 pm

Latest Report: Dec 8, 2016 at 5:53 pm


Visibility: 10 mi

Pressure: 30.38 "Hg (25.47 "Hg at 1398m altitude)

Humidity: 47%

Dew Point: 10 °F

Location of Grand JunctionLocation

Past Weather in Grand Junction — Graph

°F

Grand Junction Temperature Yesterday

Maximum temperature yesterday: 33 °F (at 12:53 pm)
Minimum temperature yesterday: 10 °F (at 7:53 am)
Average temperature yesterday: 23 °F

High & Low Weather Summary for the Past Weeks

 TemperatureHumidityPressure
High52 °F (Nov 26, 2:53 pm)100% (Nov 28, 12:53 pm)30.56 "Hg (Nov 28, 12:53 pm)
Low10 °F (Dec 7, 7:53 am)32% (Nov 26, 12:53 pm)29.52 "Hg (Nov 28, 2:53 pm)
Average31 °F68%30.08 "Hg
* Reported Nov 23 4:53 pm — Dec 8 4:53 pm, Grand Junction, Weather by CustomWeather, © 2016

Note: Actual official high and low records may vary slightly from our data, if they occured in-between our weather recording intervals... More about our weather records

Advertising

Grand Junction Weather History for the Previous 24 Hours

Scroll right to see more
 ConditionsComfort  
Time TempWeatherWind HumidityBarometerVisibility
4:53 pm
Thu, Dec 8
29 °FOvercast.3 mph41%30.37 "Hg10 mi
3:53 pm29 °FOvercast.No wind39%30.36 "Hg10 mi
2:53 pm29 °FOvercast.No wind38%30.38 "Hg10 mi
1:53 pm29 °FOvercast.No wind38%30.39 "Hg10 mi
12:53 pm28 °FOvercast.5 mph39%30.41 "Hg10 mi
11:53 am26 °FOvercast.5 mph42%30.45 "Hg10 mi
10:53 am25 °FOvercast.9 mph44%30.48 "Hg10 mi
9:53 am24 °FOvercast.8 mph46%30.49 "Hg10 mi
8:53 am22 °FOvercast.8 mph52%30.48 "Hg10 mi
7:53 am17 °FMostly cloudy.No wind68%30.48 "Hg10 mi
6:53 am17 °FPassing clouds.8 mph64%30.47 "Hg10 mi
5:53 am18 °FClear.7 mph62%30.46 "Hg10 mi
4:53 am17 °FPassing clouds.6 mph64%30.44 "Hg10 mi
3:53 am19 °FPassing clouds.7 mph59%30.42 "Hg10 mi
2:53 am15 °FClear.12 mph70%30.44 "Hg10 mi
1:53 am16 °FClear.6 mph67%30.41 "Hg10 mi
12:53 am19 °FClear.12 mph59%30.40 "Hg10 mi
11:53 pm
Wed, Dec 7
16 °FClear.8 mph71%30.41 "Hg10 mi
10:53 pm19 °FClear.No wind65%30.40 "Hg10 mi
9:53 pm21 °FClear.5 mph62%30.39 "Hg10 mi
8:53 pm23 °FClear.5 mph53%30.40 "Hg10 mi
7:53 pm24 °FClear.10 mph50%30.41 "Hg10 mi
6:53 pm24 °FPassing clouds.14 mph57%30.37 "Hg10 mi
Weather by CustomWeather, © 2016

See weather overviewHow to use our weather pages